Weather in Tushna

Russia / Ulyanovsk Oblast     54°01′21″N   48°31′09″E
temp.,
°C
wind,
m/s
gust,
m/s
humid.,
%
clouds,
%
prec.,
mm/h
press.,
hPa
HPBL,
m
4 august, wed
wed401:00+21wsw2268100 0.0 101126
04:00+19w117962 0.0 101111
07:00+21w237896 0.0 1012119
10:00+25wnw5661100 0.0 1012854
13:00+25nnw3457100 0.0 1012748
16:00+25wnw3453100 0.1 10121263
19:00+23n46677 0.0 1012578
22:00+18nnw37850 0.0 1013183
5 august, thu
thu501:00+16nnw24900 0.0 101495
04:00+16nw2392100 0.0 101477
07:00+18nnw238017 0.0 1015175
10:00+22nnw45526 0.0 1015775
13:00+25n553871 0.0 10152310
16:00+24nnw453768 0.0 10161990
19:00+22n47464 0.0 1016441
22:00+17n22595 0.0 101723
6 august, fri
fri601:00+15nnw226877 0.0 101715
04:00+14wnw117079 0.0 101817
07:00+17nw1264100 0.0 101885
10:00+21n224835 0.0 1018554
13:00+24nne333759 0.0 10181486
16:00+24nne3337100 0.0 10171062
19:00+22ne244814 0.0 1017102
22:00+18e225296 0.0 101718
7 august, sat
sat701:00+18se225021 0.0 101714
04:00+16se225410 0.0 101827
07:00+18sse23565 0.0 101876
10:00+25s23385 0.0 1018634
13:00+28sse123110 0.0 10171508
16:00+29ene1229100 0.0 10171581
19:00+25ese2344100 0.0 101649
22:00+22e1143100 0.0 101711
8 august, sun
sun801:00+19ese11492 0.0 101711
04:00+19se115092 0.0 101711
07:00+21se1153100 0.0 101726
10:00+27sse353477 0.0 1017606
13:00+31sse342640 0.0 10162216
16:00+32ese342579 0.0 10152568
19:00+27se3537100 0.0 101588
22:00+24e1139100 0.0 101511